STARLINK-6344, 56520

Orbit data source: Space-Track

STARLINK-6344, 56520 is a payload satellite owned by SpaceX/Seattle (US) in LEO that was launched on Sun, 14 May 2023 UTC via an FALCON 9 launch vehicle from the Air Force Eastern Test Range (AFETR). Payload-class satellites include a variety of spacecraft equipped with specific instruments for various scientific and technological missions. These include communications satellites like Starlink; space stations such as the ISS; scientific satellites like the Hubble; Earth observation satellites from companies like Planet Labs, Umbra, and HawkEye 360; GPS; miniature CubeSats for education and research; and military/defense satellites.

Loading next visibility...
Identifier
56520, 2023-065T
Orbit
LEO
Country
Flag of USUS
Related business
Manufacturer
SpaceX/Seattle
Mission
Operational Commercial Communications
Bus & Motor
STARLINK, Unknown motor
Mass
305 kg wet, ~290 kg dry
Launch date (UTC)
2023-05-14 (3 years ago)
Launch vehicle
FALCON 9
Launch site
Air Force Eastern Test Range (AFETR)
Object type
Payload
Rocket body
Debris
Shape & HBR
Box + 1 Pan, 10.1 m
Radar Cross Section
11.087 m², Large (>1 m²)

Expand to show TLE details & history
Last TLE update: 3 days ago

TLE from 3 days ago
0 STARLINK-6344
1 56520U 23065T   26170.52568839  .00000398  00000-0  23998-4 0  9991
2 56520  43.0030 357.4099 0001478 273.5112  86.5570 15.27583851172172
Epoch: 2026-06-19T12:36Z
TLE epoch observation values (Epoch: 2026-06-19T12:36:59.476Z)
Latitude
-0.00008°
Longitude
-99.59141°
Altitude
482.753 km
Speed
7.626 km/s
True Right ascension
23h 49m 38s
True Declination
0° 00' 00"
Sunlit
Object was in daylight at epoch
Visualization orbit readout
Latitude
Unknown
Longitude
Unknown
Altitude
Unknown
Speed
Unknown
Apparent Right ascension
Unknown
Apparent Declination
Unknown
Sunlit
N/A
Visualization observer readout
Local Sidereal Time
21:25:54
Azimuth
Unknown
Elevation
Unknown
Doppler factor
Unknown
Orbital elements
Apogee altitude
485.997 km
Perigee altitude
483.968 km
Semi-major axis
6,863.119 km
Eccentricity
0.00015
Inclination
43.003°
RAAN
357.4099°
Arg. of periapsis
273.5112°
True anomaly
86.57391°
Mean anomaly
86.557°
Eccentric anomaly
86.56545°
Mean motion
3.81734 °/min
Orbital period
94.31 mins
BSTAR
0.000023998
Loading maneuver chart data...
Computing Atmospheric mass density...
Loading historical data...
Loading historical data...
Loading historical data...
Loading historical data...
Loading historical data...
Loading historical data...
Loading historical data...

Documentation

Showing up to 5 results
|